Year,Month,Day,Hour,Minute,Value (Times are PST for temperature in C)
2020,04,15,00,00,9.20
2020,04,15,00,01,9.20
2020,04,15,00,02,9.20
2020,04,15,00,03,9.20
2020,04,15,00,04,9.10
2020,04,15,00,05,9.10
2020,04,15,00,06,9.10
2020,04,15,00,07,9.00
2020,04,15,00,08,9.00
2020,04,15,00,09,8.90
2020,04,15,00,10,8.90
2020,04,15,00,11,8.90
2020,04,15,00,12,8.80
2020,04,15,00,13,8.90
2020,04,15,00,14,8.90
2020,04,15,00,15,8.90
2020,04,15,00,16,8.90
2020,04,15,00,17,8.90
2020,04,15,00,18,8.90
2020,04,15,00,19,8.90
2020,04,15,00,20,8.90
2020,04,15,00,21,8.90
2020,04,15,00,22,9.00
2020,04,15,00,23,9.00
2020,04,15,00,24,9.00
2020,04,15,00,25,9.10
2020,04,15,00,26,9.10
2020,04,15,00,27,9.10
2020,04,15,00,28,9.10
2020,04,15,00,29,9.10
2020,04,15,00,30,9.10
2020,04,15,00,31,9.10
2020,04,15,00,32,9.10
2020,04,15,00,33,9.10
2020,04,15,00,34,9.10
2020,04,15,00,35,9.10
2020,04,15,00,36,9.10
2020,04,15,00,37,9.00
2020,04,15,00,38,9.00
2020,04,15,00,39,9.00
2020,04,15,00,40,9.00
2020,04,15,00,41,9.00
2020,04,15,00,42,8.90
2020,04,15,00,43,8.90
2020,04,15,00,44,8.90
2020,04,15,00,45,8.90
2020,04,15,00,46,8.90
2020,04,15,00,47,8.90
2020,04,15,00,48,8.90
2020,04,15,00,49,8.90
2020,04,15,00,50,8.90
2020,04,15,00,51,8.90
2020,04,15,00,52,8.80
2020,04,15,00,53,8.80
2020,04,15,00,54,8.80
2020,04,15,00,55,8.80
2020,04,15,00,56,8.80
2020,04,15,00,57,8.70
2020,04,15,00,58,8.70
2020,04,15,00,59,8.70
2020,04,15,01,00,8.70
2020,04,15,01,01,8.60
2020,04,15,01,02,8.60
2020,04,15,01,03,8.60
2020,04,15,01,04,8.60
2020,04,15,01,05,8.60
2020,04,15,01,06,8.60
2020,04,15,01,07,8.60
2020,04,15,01,08,8.60
2020,04,15,01,09,8.60
2020,04,15,01,10,8.60
2020,04,15,01,11,8.60
2020,04,15,01,12,8.60
2020,04,15,01,13,8.60
2020,04,15,01,14,8.60
2020,04,15,01,15,8.50
2020,04,15,01,16,8.50
2020,04,15,01,17,8.50
2020,04,15,01,18,8.50
2020,04,15,01,19,8.50
2020,04,15,01,20,8.50
2020,04,15,01,21,8.50
2020,04,15,01,22,8.40
2020,04,15,01,23,8.40
2020,04,15,01,24,8.40
2020,04,15,01,25,8.40
2020,04,15,01,26,8.40
2020,04,15,01,27,8.40
2020,04,15,01,28,8.40
2020,04,15,01,29,8.30
2020,04,15,01,30,8.30
2020,04,15,01,31,8.30
2020,04,15,01,32,8.30
2020,04,15,01,33,8.30
2020,04,15,01,34,8.30
2020,04,15,01,35,8.30
2020,04,15,01,36,8.30
2020,04,15,01,37,8.30
2020,04,15,01,38,8.30
2020,04,15,01,39,8.30
2020,04,15,01,40,8.30
2020,04,15,01,41,8.30
2020,04,15,01,42,8.30
2020,04,15,01,43,8.40
2020,04,15,01,44,8.40
2020,04,15,01,45,8.40
2020,04,15,01,46,8.40
2020,04,15,01,47,8.40
2020,04,15,01,48,8.50
2020,04,15,01,49,8.50
2020,04,15,01,50,8.50
2020,04,15,01,51,8.50
2020,04,15,01,52,8.60
2020,04,15,01,53,8.60
2020,04,15,01,54,8.60
2020,04,15,01,55,8.60
2020,04,15,01,56,8.60
2020,04,15,01,57,8.60
2020,04,15,01,58,8.60
2020,04,15,01,59,8.60
2020,04,15,02,00,8.70
2020,04,15,02,01,8.70
2020,04,15,02,02,8.70
2020,04,15,02,03,8.70
2020,04,15,02,04,8.70
2020,04,15,02,05,8.70
2020,04,15,02,06,8.80
2020,04,15,02,07,8.80
2020,04,15,02,08,8.80
2020,04,15,02,09,8.80
2020,04,15,02,10,8.80
2020,04,15,02,11,8.80
2020,04,15,02,12,8.80
2020,04,15,02,13,8.70
2020,04,15,02,14,8.70
2020,04,15,02,15,8.70
2020,04,15,02,16,8.60
2020,04,15,02,17,8.60
2020,04,15,02,18,8.60
2020,04,15,02,19,8.50
2020,04,15,02,20,8.50
2020,04,15,02,21,8.40
2020,04,15,02,22,8.40
2020,04,15,02,23,8.40
2020,04,15,02,24,8.40
2020,04,15,02,25,8.40
2020,04,15,02,26,8.30
2020,04,15,02,27,8.30
2020,04,15,02,28,8.30
2020,04,15,02,29,8.30
2020,04,15,02,30,8.30
2020,04,15,02,31,8.30
2020,04,15,02,32,8.20
2020,04,15,02,33,8.20
2020,04,15,02,34,8.20
2020,04,15,02,35,8.20
2020,04,15,02,36,8.10
2020,04,15,02,37,8.10
2020,04,15,02,38,8.10
2020,04,15,02,39,8.00
2020,04,15,02,40,7.90
2020,04,15,02,41,7.90
2020,04,15,02,42,7.80
2020,04,15,02,43,7.70
2020,04,15,02,44,7.70
2020,04,15,02,45,7.60
2020,04,15,02,46,7.60
2020,04,15,02,47,7.50
2020,04,15,02,48,7.50
2020,04,15,02,49,7.50
2020,04,15,02,50,7.40
2020,04,15,02,51,7.40
2020,04,15,02,52,7.40
2020,04,15,02,53,7.40
2020,04,15,02,54,7.40
2020,04,15,02,55,7.40
2020,04,15,02,56,7.40
2020,04,15,02,57,7.40
2020,04,15,02,58,7.40
2020,04,15,02,59,7.30
2020,04,15,03,00,7.30
2020,04,15,03,01,7.30
2020,04,15,03,02,7.30
2020,04,15,03,03,7.40
2020,04,15,03,04,7.40
2020,04,15,03,05,7.40
2020,04,15,03,06,7.40
2020,04,15,03,07,7.40
2020,04,15,03,08,7.40
2020,04,15,03,09,7.40
2020,04,15,03,10,7.40
2020,04,15,03,11,7.40
2020,04,15,03,12,7.40
2020,04,15,03,13,7.40
2020,04,15,03,14,7.40
2020,04,15,03,15,7.40
2020,04,15,03,16,7.40
2020,04,15,03,17,7.40
2020,04,15,03,18,7.40
2020,04,15,03,19,7.40
2020,04,15,03,20,7.40
2020,04,15,03,21,7.40
2020,04,15,03,22,7.40
2020,04,15,03,23,7.40
2020,04,15,03,24,7.40
2020,04,15,03,25,7.40
2020,04,15,03,26,7.40
2020,04,15,03,27,7.40
2020,04,15,03,28,7.40
2020,04,15,03,29,7.40
2020,04,15,03,30,7.40
2020,04,15,03,31,7.40
2020,04,15,03,32,7.40
2020,04,15,03,33,7.40
2020,04,15,03,34,7.40
2020,04,15,03,35,7.40
2020,04,15,03,36,7.40
2020,04,15,03,37,7.40
2020,04,15,03,38,7.50
2020,04,15,03,39,7.50
2020,04,15,03,40,7.50
2020,04,15,03,41,7.50
2020,04,15,03,42,7.40
2020,04,15,03,43,7.50
2020,04,15,03,44,7.50
2020,04,15,03,45,7.50
2020,04,15,03,46,7.50
2020,04,15,03,47,7.50
2020,04,15,03,48,7.60
2020,04,15,03,49,7.60
2020,04,15,03,50,7.60
2020,04,15,03,51,7.60
2020,04,15,03,52,7.60
2020,04,15,03,53,7.60
2020,04,15,03,54,7.60
2020,04,15,03,55,7.60
2020,04,15,03,56,7.60
2020,04,15,03,57,7.60
2020,04,15,03,58,7.60
2020,04,15,03,59,7.60
2020,04,15,04,00,7.60
2020,04,15,04,01,7.60
2020,04,15,04,02,7.60
2020,04,15,04,03,7.60
2020,04,15,04,04,7.60
2020,04,15,04,05,7.60
2020,04,15,04,06,7.60
2020,04,15,04,07,7.60
2020,04,15,04,08,7.60
2020,04,15,04,09,7.60
2020,04,15,04,10,7.50
2020,04,15,04,11,7.50
2020,04,15,04,12,7.50
2020,04,15,04,13,7.50
2020,04,15,04,14,7.40
2020,04,15,04,15,7.40
2020,04,15,04,16,7.40
2020,04,15,04,17,7.40
2020,04,15,04,18,7.40
2020,04,15,04,19,7.30
2020,04,15,04,20,7.30
2020,04,15,04,21,7.30
2020,04,15,04,22,7.30
2020,04,15,04,23,7.20
2020,04,15,04,24,7.20
2020,04,15,04,25,7.20
2020,04,15,04,26,7.20
2020,04,15,04,27,7.20
2020,04,15,04,28,7.20
2020,04,15,04,29,7.20
2020,04,15,04,30,7.30
2020,04,15,04,31,7.30
2020,04,15,04,32,7.30
2020,04,15,04,33,7.30
2020,04,15,04,34,7.30
2020,04,15,04,35,7.20
2020,04,15,04,36,7.20
2020,04,15,04,37,7.20
2020,04,15,04,38,7.20
2020,04,15,04,39,7.20
2020,04,15,04,40,7.20
2020,04,15,04,41,7.20
2020,04,15,04,42,7.20
2020,04,15,04,43,7.20
2020,04,15,04,44,7.20
2020,04,15,04,45,7.10
2020,04,15,04,46,7.10
2020,04,15,04,47,7.10
2020,04,15,04,48,7.10
2020,04,15,04,49,7.10
2020,04,15,04,50,7.10
2020,04,15,04,51,7.10
2020,04,15,04,52,7.10
2020,04,15,04,53,7.00
2020,04,15,04,54,7.00
2020,04,15,04,55,7.00
2020,04,15,04,56,7.00
2020,04,15,04,57,7.00
2020,04,15,04,58,7.00
2020,04,15,04,59,6.90
2020,04,15,05,00,6.90
2020,04,15,05,01,6.90
2020,04,15,05,02,6.90
2020,04,15,05,03,6.90
2020,04,15,05,04,6.90
2020,04,15,05,05,6.90
2020,04,15,05,06,6.80
2020,04,15,05,07,6.80
2020,04,15,05,08,6.80
2020,04,15,05,09,6.70
2020,04,15,05,10,6.70
2020,04,15,05,11,6.70
2020,04,15,05,12,6.70
2020,04,15,05,13,6.60
2020,04,15,05,14,6.60
2020,04,15,05,15,6.60
2020,04,15,05,16,6.60
2020,04,15,05,17,6.60
2020,04,15,05,18,6.60
2020,04,15,05,19,6.60
2020,04,15,05,20,6.60
2020,04,15,05,21,6.60
2020,04,15,05,22,6.60
2020,04,15,05,23,6.60
2020,04,15,05,24,6.60
2020,04,15,05,25,6.60
2020,04,15,05,26,6.70
2020,04,15,05,27,6.70
2020,04,15,05,28,6.80
2020,04,15,05,29,6.80
2020,04,15,05,30,6.90
2020,04,15,05,31,6.90
2020,04,15,05,32,7.00
2020,04,15,05,33,7.10
2020,04,15,05,34,7.10
2020,04,15,05,35,7.20
2020,04,15,05,36,7.20
2020,04,15,05,37,7.20
2020,04,15,05,38,7.30
2020,04,15,05,39,7.30
2020,04,15,05,40,7.30
2020,04,15,05,41,7.30
2020,04,15,05,42,7.30
2020,04,15,05,43,7.40
2020,04,15,05,44,7.40
2020,04,15,05,45,7.40
2020,04,15,05,46,7.40
2020,04,15,05,47,7.40
2020,04,15,05,48,7.40
2020,04,15,05,49,7.40
2020,04,15,05,50,7.40
2020,04,15,05,51,7.50
2020,04,15,05,52,7.50
2020,04,15,05,53,7.50
2020,04,15,05,54,7.50
2020,04,15,05,55,7.50
2020,04,15,05,56,7.50
2020,04,15,05,57,7.50
2020,04,15,05,58,7.50
2020,04,15,05,59,7.50
2020,04,15,06,00,7.60
2020,04,15,06,01,7.60
2020,04,15,06,02,7.60
2020,04,15,06,03,7.60
2020,04,15,06,04,7.60
2020,04,15,06,05,7.60
2020,04,15,06,06,7.70
2020,04,15,06,07,7.70
2020,04,15,06,08,7.70
2020,04,15,06,09,7.70
2020,04,15,06,10,7.70
2020,04,15,06,11,7.70
2020,04,15,06,12,7.80
2020,04,15,06,13,7.80
2020,04,15,06,14,7.80
2020,04,15,06,15,7.80
2020,04,15,06,16,7.80
2020,04,15,06,17,7.90
2020,04,15,06,18,7.90
2020,04,15,06,19,7.90
2020,04,15,06,20,7.90
2020,04,15,06,21,7.90
2020,04,15,06,22,7.90
2020,04,15,06,23,7.90
2020,04,15,06,24,8.00
2020,04,15,06,25,8.00
2020,04,15,06,26,8.00
2020,04,15,06,27,8.00
2020,04,15,06,28,8.00
2020,04,15,06,29,8.10
2020,04,15,06,30,8.10
2020,04,15,06,31,8.10
2020,04,15,06,32,8.10
2020,04,15,06,33,8.10
2020,04,15,06,34,8.20
2020,04,15,06,35,8.20
2020,04,15,06,36,8.20
2020,04,15,06,37,8.20
2020,04,15,06,38,8.30
2020,04,15,06,39,8.30
2020,04,15,06,40,8.30
2020,04,15,06,41,8.30
2020,04,15,06,42,8.30
2020,04,15,06,43,8.30
2020,04,15,06,44,8.30
2020,04,15,06,45,8.30
2020,04,15,06,46,8.30
2020,04,15,06,47,8.30
2020,04,15,06,48,8.30
2020,04,15,06,49,8.30
2020,04,15,06,50,8.30
2020,04,15,06,51,8.30
2020,04,15,06,52,8.30
2020,04,15,06,53,8.30
2020,04,15,06,54,8.30
2020,04,15,06,55,8.30
2020,04,15,06,56,8.30
2020,04,15,06,57,8.30
2020,04,15,06,58,8.30
2020,04,15,06,59,8.30
2020,04,15,07,00,8.30
2020,04,15,07,01,8.30
2020,04,15,07,02,8.30
2020,04,15,07,03,8.30
2020,04,15,07,04,8.30
2020,04,15,07,05,8.30
2020,04,15,07,06,8.30
2020,04,15,07,07,8.40
2020,04,15,07,08,8.40
2020,04,15,07,09,8.40
2020,04,15,07,10,8.40
2020,04,15,07,11,8.40
2020,04,15,07,12,8.50
2020,04,15,07,13,8.50
2020,04,15,07,14,8.50
2020,04,15,07,15,8.60
2020,04,15,07,16,8.60
2020,04,15,07,17,8.60
2020,04,15,07,18,8.60
2020,04,15,07,19,8.60
2020,04,15,07,20,8.60
2020,04,15,07,21,8.60
2020,04,15,07,22,8.70
2020,04,15,07,23,8.70
2020,04,15,07,24,8.70
2020,04,15,07,25,8.70
2020,04,15,07,26,8.80
2020,04,15,07,27,8.80
2020,04,15,07,28,8.80
2020,04,15,07,29,8.80
2020,04,15,07,30,8.80
2020,04,15,07,31,8.80
2020,04,15,07,32,8.80
2020,04,15,07,33,8.80
2020,04,15,07,34,8.80
2020,04,15,07,35,8.80
2020,04,15,07,36,8.80
2020,04,15,07,37,8.80
2020,04,15,07,38,8.80
2020,04,15,07,39,8.80
2020,04,15,07,40,8.80
2020,04,15,07,41,8.80
2020,04,15,07,42,8.80
2020,04,15,07,43,8.80
2020,04,15,07,44,8.80
2020,04,15,07,45,8.80
2020,04,15,07,46,8.80
2020,04,15,07,47,8.80
2020,04,15,07,48,8.80
2020,04,15,07,49,8.80
2020,04,15,07,50,8.80
2020,04,15,07,51,8.80
2020,04,15,07,52,8.80
2020,04,15,07,53,8.80
2020,04,15,07,54,8.80
2020,04,15,07,55,8.80
2020,04,15,07,56,8.80
2020,04,15,07,57,8.80
2020,04,15,07,58,8.80
2020,04,15,07,59,8.80
2020,04,15,08,00,8.80
2020,04,15,08,01,8.80
2020,04,15,08,02,8.80
2020,04,15,08,03,8.80
2020,04,15,08,04,8.80
2020,04,15,08,05,8.90
2020,04,15,08,06,8.90
2020,04,15,08,07,8.90
2020,04,15,08,08,8.90
2020,04,15,08,09,8.90
2020,04,15,08,10,8.90
2020,04,15,08,11,8.90
2020,04,15,08,12,8.90
2020,04,15,08,13,8.90
2020,04,15,08,14,9.00
2020,04,15,08,15,9.00
2020,04,15,08,16,9.00
2020,04,15,08,17,9.00
2020,04,15,08,18,9.10
2020,04,15,08,19,9.10
2020,04,15,08,20,9.10
2020,04,15,08,21,9.20
2020,04,15,08,22,9.20
2020,04,15,08,23,9.20
2020,04,15,08,24,9.20
2020,04,15,08,25,9.20
2020,04,15,08,26,9.20
2020,04,15,08,27,9.20
2020,04,15,08,28,9.30
2020,04,15,08,29,9.30
2020,04,15,08,30,9.40
2020,04,15,08,31,9.40
2020,04,15,08,32,9.40
2020,04,15,08,33,9.40
2020,04,15,08,34,9.50
2020,04,15,08,35,9.50
2020,04,15,08,36,9.50
2020,04,15,08,37,9.40
2020,04,15,08,38,9.40
2020,04,15,08,39,9.40
2020,04,15,08,40,9.40
2020,04,15,08,41,9.50
2020,04,15,08,42,9.50
2020,04,15,08,43,9.60
2020,04,15,08,44,9.60
2020,04,15,08,45,9.60
2020,04,15,08,46,9.70
2020,04,15,08,47,9.70
2020,04,15,08,48,9.80
2020,04,15,08,49,9.80
2020,04,15,08,50,9.90
2020,04,15,08,51,9.90
2020,04,15,08,52,10.00
2020,04,15,08,53,10.00
2020,04,15,08,54,10.10
2020,04,15,08,55,10.10
2020,04,15,08,56,10.20
2020,04,15,08,57,10.20
2020,04,15,08,58,10.20
2020,04,15,08,59,10.30
2020,04,15,09,00,10.30
2020,04,15,09,01,10.30
2020,04,15,09,02,10.20
2020,04,15,09,03,10.20
2020,04,15,09,04,10.20
2020,04,15,09,05,10.20
2020,04,15,09,06,10.20
2020,04,15,09,07,10.20
2020,04,15,09,08,10.20
2020,04,15,09,09,10.20
2020,04,15,09,10,10.20
2020,04,15,09,11,10.30
2020,04,15,09,12,10.30
2020,04,15,09,13,10.30
2020,04,15,09,14,10.40
2020,04,15,09,15,10.40
2020,04,15,09,16,10.40
2020,04,15,09,17,10.50
2020,04,15,09,18,10.50
2020,04,15,09,19,10.50
2020,04,15,09,20,10.50
2020,04,15,09,21,10.50
2020,04,15,09,22,10.60
2020,04,15,09,23,10.60
2020,04,15,09,24,10.70
2020,04,15,09,25,10.80
2020,04,15,09,26,10.80
2020,04,15,09,27,10.80
2020,04,15,09,28,10.90
2020,04,15,09,29,10.90
2020,04,15,09,30,11.00
2020,04,15,09,31,11.00
2020,04,15,09,32,11.00
2020,04,15,09,33,11.00
2020,04,15,09,34,10.90
2020,04,15,09,35,10.90
2020,04,15,09,36,10.90
2020,04,15,09,37,10.90
2020,04,15,09,38,11.00
2020,04,15,09,39,11.00
2020,04,15,09,40,11.10
2020,04,15,09,41,11.20
2020,04,15,09,42,11.30
2020,04,15,09,43,11.30
2020,04,15,09,44,11.30
2020,04,15,09,45,11.40
2020,04,15,09,46,11.40
2020,04,15,09,47,11.40
2020,04,15,09,48,11.40
2020,04,15,09,49,11.50
2020,04,15,09,50,11.50
2020,04,15,09,51,11.50
2020,04,15,09,52,11.50
2020,04,15,09,53,11.50
2020,04,15,09,54,11.50
2020,04,15,09,55,11.50
2020,04,15,09,56,11.50
2020,04,15,09,57,11.50
2020,04,15,09,58,11.60
2020,04,15,09,59,11.60
2020,04,15,10,00,11.70
2020,04,15,10,01,11.70
2020,04,15,10,02,11.60
2020,04,15,10,03,11.60
2020,04,15,10,04,11.60
2020,04,15,10,05,11.60
2020,04,15,10,06,11.60
2020,04,15,10,07,11.70
2020,04,15,10,08,11.80
2020,04,15,10,09,11.80
2020,04,15,10,10,11.80
2020,04,15,10,11,11.80
2020,04,15,10,12,11.80
2020,04,15,10,13,11.80
2020,04,15,10,14,11.80
2020,04,15,10,15,11.80
2020,04,15,10,16,11.80
2020,04,15,10,17,11.80
2020,04,15,10,18,11.80
2020,04,15,10,19,11.80
2020,04,15,10,20,11.80
2020,04,15,10,21,11.80
2020,04,15,10,22,11.70
2020,04,15,10,23,11.80
2020,04,15,10,24,11.80
2020,04,15,10,25,11.80
2020,04,15,10,26,11.80
2020,04,15,10,27,11.80
2020,04,15,10,28,11.80
2020,04,15,10,29,11.80
2020,04,15,10,30,11.80
2020,04,15,10,31,11.90
2020,04,15,10,32,11.90
2020,04,15,10,33,11.90
2020,04,15,10,34,12.00
2020,04,15,10,35,12.00
2020,04,15,10,36,12.00
2020,04,15,10,37,12.00
2020,04,15,10,38,12.10
2020,04,15,10,39,12.10
2020,04,15,10,40,12.10
2020,04,15,10,41,12.10
2020,04,15,10,42,12.10
2020,04,15,10,43,12.10
2020,04,15,10,44,12.10
2020,04,15,10,45,12.20
2020,04,15,10,46,12.20
2020,04,15,10,47,12.30
2020,04,15,10,48,12.30
2020,04,15,10,49,12.30
2020,04,15,10,50,12.30
2020,04,15,10,51,12.40
2020,04,15,10,52,12.40
2020,04,15,10,53,12.50
2020,04,15,10,54,12.60
2020,04,15,10,55,12.70
2020,04,15,10,56,12.80
2020,04,15,10,57,12.80
2020,04,15,10,58,12.80
2020,04,15,10,59,12.70
2020,04,15,11,00,12.60
2020,04,15,11,01,12.50
2020,04,15,11,02,12.50
2020,04,15,11,03,12.50
2020,04,15,11,04,12.40
2020,04,15,11,05,12.40
2020,04,15,11,06,12.50
2020,04,15,11,07,12.50
2020,04,15,11,08,12.50
2020,04,15,11,09,12.50
2020,04,15,11,10,12.50
2020,04,15,11,11,12.60
2020,04,15,11,12,12.70
2020,04,15,11,13,12.80
2020,04,15,11,14,12.90
2020,04,15,11,15,13.00
2020,04,15,11,16,13.10
2020,04,15,11,17,13.10
2020,04,15,11,18,13.10
2020,04,15,11,19,13.10
2020,04,15,11,20,13.10
2020,04,15,11,21,13.10
2020,04,15,11,22,13.10
2020,04,15,11,23,13.10
2020,04,15,11,24,13.00
2020,04,15,11,25,12.90
2020,04,15,11,26,12.80
2020,04,15,11,27,12.80
2020,04,15,11,28,12.80
2020,04,15,11,29,12.70
2020,04,15,11,30,12.80
2020,04,15,11,31,12.90
2020,04,15,11,32,12.90
2020,04,15,11,33,13.00
2020,04,15,11,34,13.00
2020,04,15,11,35,13.00
2020,04,15,11,36,13.20
2020,04,15,11,37,13.30
2020,04,15,11,38,13.30
2020,04,15,11,39,13.30
2020,04,15,11,40,13.30
2020,04,15,11,41,13.40
2020,04,15,11,42,13.50
2020,04,15,11,43,13.60
2020,04,15,11,44,13.70
2020,04,15,11,45,13.80
2020,04,15,11,46,13.90
2020,04,15,11,47,14.00
2020,04,15,11,48,14.00
2020,04,15,11,49,14.00
2020,04,15,11,50,14.00
2020,04,15,11,51,14.00
2020,04,15,11,52,14.00
2020,04,15,11,53,14.10
2020,04,15,11,54,14.10
2020,04,15,11,55,14.20
2020,04,15,11,56,14.20
2020,04,15,11,57,14.30
2020,04,15,11,58,14.30
2020,04,15,11,59,14.40
2020,04,15,12,00,14.50
2020,04,15,12,01,14.50
2020,04,15,12,02,14.50
2020,04,15,12,03,14.40
2020,04,15,12,04,14.40
2020,04,15,12,05,14.50
2020,04,15,12,06,14.60
2020,04,15,12,07,14.60
2020,04,15,12,08,14.60
2020,04,15,12,09,14.70
2020,04,15,12,10,14.70
2020,04,15,12,11,14.70
2020,04,15,12,12,14.60
2020,04,15,12,13,14.60
2020,04,15,12,14,14.60
2020,04,15,12,15,14.60
2020,04,15,12,16,14.60
2020,04,15,12,17,14.60
2020,04,15,12,18,14.60
2020,04,15,12,19,14.60
2020,04,15,12,20,14.70
2020,04,15,12,21,14.70
2020,04,15,12,22,14.70
2020,04,15,12,23,14.70
2020,04,15,12,24,14.70
2020,04,15,12,25,14.70
2020,04,15,12,26,14.70
2020,04,15,12,27,14.70
2020,04,15,12,28,14.80
2020,04,15,12,29,14.80
2020,04,15,12,30,14.80
2020,04,15,12,31,14.80
2020,04,15,12,32,14.80
2020,04,15,12,33,14.80
2020,04,15,12,34,14.70
2020,04,15,12,35,14.60
2020,04,15,12,36,14.60
2020,04,15,12,37,14.60
2020,04,15,12,38,14.60
2020,04,15,12,39,14.60
2020,04,15,12,40,14.60
2020,04,15,12,41,14.60
2020,04,15,12,42,14.70
2020,04,15,12,43,14.70
2020,04,15,12,44,14.70
2020,04,15,12,45,14.60
2020,04,15,12,46,14.60
2020,04,15,12,47,14.60
2020,04,15,12,48,14.60
2020,04,15,12,49,14.70
2020,04,15,12,50,14.70
2020,04,15,12,51,14.70
2020,04,15,12,52,14.80
2020,04,15,12,53,14.80
2020,04,15,12,54,14.90
2020,04,15,12,55,14.90
2020,04,15,12,56,15.00
2020,04,15,12,57,15.00
2020,04,15,12,58,15.10
2020,04,15,12,59,15.10
2020,04,15,13,00,15.10
2020,04,15,13,01,15.20
2020,04,15,13,02,15.30
2020,04,15,13,03,15.30
2020,04,15,13,04,15.40
2020,04,15,13,05,15.40
2020,04,15,13,06,15.40
2020,04,15,13,07,15.40
2020,04,15,13,08,15.30
2020,04,15,13,09,15.20
2020,04,15,13,10,15.10
2020,04,15,13,11,15.00
2020,04,15,13,12,14.90
2020,04,15,13,13,14.80
2020,04,15,13,14,14.80
2020,04,15,13,15,14.80
2020,04,15,13,16,14.80
2020,04,15,13,17,14.80
2020,04,15,13,18,14.80
2020,04,15,13,19,14.80
2020,04,15,13,20,14.70
2020,04,15,13,21,14.70
2020,04,15,13,22,14.70
2020,04,15,13,23,14.80
2020,04,15,13,24,14.80
2020,04,15,13,25,14.90
2020,04,15,13,26,14.90
2020,04,15,13,27,14.90
2020,04,15,13,28,14.90
2020,04,15,13,29,14.90
2020,04,15,13,30,14.80
2020,04,15,13,31,14.80
2020,04,15,13,32,14.80
2020,04,15,13,33,14.90
2020,04,15,13,34,14.90
2020,04,15,13,35,14.90
2020,04,15,13,36,14.90
2020,04,15,13,37,14.90
2020,04,15,13,38,15.00
2020,04,15,13,39,15.10
2020,04,15,13,40,15.20
2020,04,15,13,41,15.20
2020,04,15,13,42,15.10
2020,04,15,13,43,15.10
2020,04,15,13,44,15.10
2020,04,15,13,45,15.10
2020,04,15,13,46,15.20
2020,04,15,13,47,15.20
2020,04,15,13,48,15.20
2020,04,15,13,49,15.20
2020,04,15,13,50,15.20
2020,04,15,13,51,15.30
2020,04,15,13,52,15.30
2020,04,15,13,53,15.40
2020,04,15,13,54,15.50
2020,04,15,13,55,15.60
2020,04,15,13,56,15.60
2020,04,15,13,57,15.60
2020,04,15,13,58,15.60
2020,04,15,13,59,15.50
2020,04,15,14,00,15.40
2020,04,15,14,01,15.40
2020,04,15,14,02,15.30
2020,04,15,14,03,15.30
2020,04,15,14,04,15.30
2020,04,15,14,05,15.40
2020,04,15,14,06,15.40
2020,04,15,14,07,15.50
2020,04,15,14,08,15.50
2020,04,15,14,09,15.50
2020,04,15,14,10,15.60
2020,04,15,14,11,15.60
2020,04,15,14,12,15.70
2020,04,15,14,13,15.80
2020,04,15,14,14,15.80
2020,04,15,14,15,15.90
2020,04,15,14,16,15.90
2020,04,15,14,17,15.90
2020,04,15,14,18,15.90
2020,04,15,14,19,15.90
2020,04,15,14,20,16.00
2020,04,15,14,21,16.10
2020,04,15,14,22,16.20
2020,04,15,14,23,16.30
2020,04,15,14,24,16.40
2020,04,15,14,25,16.40
2020,04,15,14,26,16.50
2020,04,15,14,27,16.50
2020,04,15,14,28,16.60
2020,04,15,14,29,16.60
2020,04,15,14,30,16.60
2020,04,15,14,31,16.50
2020,04,15,14,32,16.50
2020,04,15,14,33,16.50
2020,04,15,14,34,16.50
2020,04,15,14,35,16.40
2020,04,15,14,36,16.50
2020,04,15,14,37,16.60
2020,04,15,14,38,16.70
2020,04,15,14,39,16.70
2020,04,15,14,40,16.60
2020,04,15,14,41,16.60
2020,04,15,14,42,16.60
2020,04,15,14,43,16.60
2020,04,15,14,44,16.70
2020,04,15,14,45,16.70
2020,04,15,14,46,16.80
2020,04,15,14,47,16.80
2020,04,15,14,48,16.90
2020,04,15,14,49,16.90
2020,04,15,14,50,16.90
2020,04,15,14,51,17.00
2020,04,15,14,52,17.00
2020,04,15,14,53,17.10
2020,04,15,14,54,17.10
2020,04,15,14,55,17.20
2020,04,15,14,56,17.20
2020,04,15,14,57,17.30
2020,04,15,14,58,17.30
2020,04,15,14,59,17.20
2020,04,15,15,00,17.20
2020,04,15,15,01,17.10
2020,04,15,15,02,17.00
2020,04,15,15,03,16.90
2020,04,15,15,04,16.80
2020,04,15,15,05,16.80
2020,04,15,15,06,16.80
2020,04,15,15,07,16.80
2020,04,15,15,08,16.80
2020,04,15,15,09,16.80
2020,04,15,15,10,16.80
2020,04,15,15,11,16.80
2020,04,15,15,12,16.80
2020,04,15,15,13,16.80
2020,04,15,15,14,16.90
2020,04,15,15,15,17.00
2020,04,15,15,16,17.10
2020,04,15,15,17,17.00
2020,04,15,15,18,17.00
2020,04,15,15,19,17.00
2020,04,15,15,20,17.00
2020,04,15,15,21,16.90
2020,04,15,15,22,16.90
2020,04,15,15,23,16.80
2020,04,15,15,24,16.80
2020,04,15,15,25,16.80
2020,04,15,15,26,16.80
2020,04,15,15,27,16.80
2020,04,15,15,28,16.80
2020,04,15,15,29,16.90
2020,04,15,15,30,17.00
2020,04,15,15,31,17.00
2020,04,15,15,32,17.10
2020,04,15,15,33,17.20
2020,04,15,15,34,17.30
2020,04,15,15,35,17.30
2020,04,15,15,36,17.40
2020,04,15,15,37,17.40
2020,04,15,15,38,17.40
2020,04,15,15,39,17.50
2020,04,15,15,40,17.50
2020,04,15,15,41,17.40
2020,04,15,15,42,17.40
2020,04,15,15,43,17.40
2020,04,15,15,44,17.50
2020,04,15,15,45,17.60
2020,04,15,15,46,17.60
2020,04,15,15,47,17.60
2020,04,15,15,48,17.60
2020,04,15,15,49,17.60
2020,04,15,15,50,17.50
2020,04,15,15,51,17.50
2020,04,15,15,52,17.40
2020,04,15,15,53,17.40
2020,04,15,15,54,17.40
2020,04,15,15,55,17.30
2020,04,15,15,56,17.40
2020,04,15,15,57,17.40
2020,04,15,15,58,17.40
2020,04,15,15,59,17.40
2020,04,15,16,00,17.50
2020,04,15,16,01,17.50
2020,04,15,16,02,17.50
2020,04,15,16,03,17.50
2020,04,15,16,04,17.60
2020,04,15,16,05,17.70
2020,04,15,16,06,17.70
2020,04,15,16,07,17.70
2020,04,15,16,08,17.70
2020,04,15,16,09,17.60
2020,04,15,16,10,17.60
2020,04,15,16,11,17.60
2020,04,15,16,12,17.70
2020,04,15,16,13,17.70
2020,04,15,16,14,17.80
2020,04,15,16,15,17.90
2020,04,15,16,16,17.90
2020,04,15,16,17,17.90
2020,04,15,16,18,18.00
2020,04,15,16,19,18.00
2020,04,15,16,20,18.10
2020,04,15,16,21,18.20
2020,04,15,16,22,18.10
2020,04,15,16,23,18.10
2020,04,15,16,24,18.10
2020,04,15,16,25,18.10
2020,04,15,16,26,18.20
2020,04,15,16,27,18.20
2020,04,15,16,28,18.20
2020,04,15,16,29,18.20
2020,04,15,16,30,18.20
2020,04,15,16,31,18.20
2020,04,15,16,32,18.10
2020,04,15,16,33,18.00
2020,04,15,16,34,17.90
2020,04,15,16,35,17.90
2020,04,15,16,36,17.90
2020,04,15,16,37,17.80
2020,04,15,16,38,17.80
2020,04,15,16,39,17.80
2020,04,15,16,40,17.80
2020,04,15,16,41,17.80
2020,04,15,16,42,17.80
2020,04,15,16,43,17.70
2020,04,15,16,44,17.70
2020,04,15,16,45,17.70
2020,04,15,16,46,17.70
2020,04,15,16,47,17.80
2020,04,15,16,48,17.80
2020,04,15,16,49,17.70
2020,04,15,16,50,17.70
2020,04,15,16,51,17.70
2020,04,15,16,52,17.70
2020,04,15,16,53,17.80
2020,04,15,16,54,17.80
2020,04,15,16,55,17.90
2020,04,15,16,56,17.90
2020,04,15,16,57,17.90
2020,04,15,16,58,17.90
2020,04,15,16,59,17.90
2020,04,15,17,00,17.90
2020,04,15,17,01,17.80
2020,04,15,17,02,17.90
2020,04,15,17,03,17.90
2020,04,15,17,04,18.00
2020,04,15,17,05,18.00
2020,04,15,17,06,18.10
2020,04,15,17,07,18.00
2020,04,15,17,08,18.00
2020,04,15,17,09,18.00
2020,04,15,17,10,18.10
2020,04,15,17,11,18.00
2020,04,15,17,12,18.00
2020,04,15,17,13,18.00
2020,04,15,17,14,17.90
2020,04,15,17,15,17.90
2020,04,15,17,16,17.90
2020,04,15,17,17,17.90
2020,04,15,17,18,18.00
2020,04,15,17,19,18.00
2020,04,15,17,20,17.90
2020,04,15,17,21,17.90
2020,04,15,17,22,17.90
2020,04,15,17,23,17.90
2020,04,15,17,24,18.00
2020,04,15,17,25,18.00
2020,04,15,17,26,18.00
2020,04,15,17,27,18.00
2020,04,15,17,28,17.90
2020,04,15,17,29,17.90
2020,04,15,17,30,17.80
2020,04,15,17,31,17.80
2020,04,15,17,32,17.80
2020,04,15,17,33,17.80
2020,04,15,17,34,17.80
2020,04,15,17,35,17.80
2020,04,15,17,36,17.80
2020,04,15,17,37,17.80
2020,04,15,17,38,17.80
2020,04,15,17,39,17.70
2020,04,15,17,40,17.70
2020,04,15,17,41,17.70
2020,04,15,17,42,17.60